Location: Amber Place
(27.9751°N, 82.3711°W)
Time: 12:01:02
(UTC+00:00)

Tiangong - Pass Details

Date: 28 September 2021
Orbit: 382 x 385 km, 41.5° (Epoch: 18 October)

Event Time Altitude Azimuth Distance (km) Brightness Sun altitude
Exits shadow 09:48:57 15° 1° (N) 1,131 3.5 -21.1°
Drops below altitude 10° 09:50:09 10° 22° (NNE) 1,392 4.3 -20.8°
Sets 09:52:43 0° 44° (NE) 2,246 5.8 -20.3°
